This is the latest recevied weather packets stored in our database for station/object N0SWP-3. If no packets are shown the sender has not sent any weather packets the latest 10 day(s).
| Time | Temp. | Humidity | Pressure | Rain* | Wind** | Luminosity | Snow |
|---|---|---|---|---|---|---|---|
| 1777203183 | 12.78° C | 95% | 1010.3 hPa | 0 mm | - | - | - |
| 1777200483 | 12.78° C | 95% | 1009.6 hPa | 0 mm | - | - | - |
| 1777200303 | 12.78° C | 95% | 1009.6 hPa | 0 mm | - | - | - |
| 1777199224 | 12.78° C | 95% | 1009.8 hPa | 0 mm | - | - | - |
| 1777197423 | 12.78° C | 94% | 1010 hPa | 0 mm | - | - | - |
| 1777196523 | 12.78° C | 93% | 1009.9 hPa | 0 mm | - | - | - |
| 1777194183 | 13.89° C | 92% | 1009.5 hPa | 0 mm | - | - | - |
| 1777193823 | 13.89° C | 92% | 1009.5 hPa | 0 mm | - | - | - |
| 1777193103 | 13.89° C | 92% | 1009.3 hPa | 0 mm | - | - | - |
| 1777191663 | 13.89° C | 92% | 1009.5 hPa | 0 mm | - | - | - |
| 1777191303 | 13.89° C | 92% | 1009.6 hPa | 0 mm | - | - | - |
| 1777190717 | 14.44° C | 91% | 1009.7 hPa | 0 mm | - | - | - |
| 1777189863 | 14.44° C | 90% | 1009.9 hPa | 0 mm | - | - | - |
| 1777189683 | 14.44° C | 90% | 1009.9 hPa | 0 mm | - | - | - |
| 1777189277 | 15° C | 90% | 1009.9 hPa | 0 mm | - | - | - |
| 1777188917 | 15° C | 90% | 1010 hPa | 0 mm | - | - | - |
| 1777187883 | 15° C | 91% | 1010 hPa | 0 mm | - | - | - |
| 1777187117 | 15° C | 90% | 1010.1 hPa | 0 mm | - | - | - |
| 1777186264 | 15.56° C | 88% | 1010.2 hPa | 0 mm | - | - | - |
| 1777185723 | 15.56° C | 88% | 1010.2 hPa | 0 mm | - | - | - |
| 1777185003 | 15.56° C | 88% | 1010.2 hPa | 0 mm | - | - | - |
| 1777183383 | 16.11° C | 85% | 1010.2 hPa | 0 mm | - | - | - |
| 1777182663 | 16.11° C | 85% | 1010.1 hPa | 0 mm | - | - | - |
| 1777182123 | 16.67° C | 84% | 1010 hPa | 0 mm | - | - | - |
| 1777180683 | 17.22° C | 82% | 1009.7 hPa | 0 mm | - | - | - |
* Rain latest hour (hover to see other rain measurements)
** Current wind speed in m/s (hover to see current wind gust speed)